EW2927 Weather Reports


Display with metric or nautical units.
time (UTC)temp
F
wind
direction
speed
MPH
gust
MPH
rain 1hr
in
rain 24hr
in
rain mn
in
humidity
%
barometer
mb
20190527144024 86 270 2.0 4.0 0.00 0.00 0.00 62 1019.0
20190527143028 86 268 1.0 4.0 0.00 0.00 0.00 63 1019.1
20190527142023 85 263 2.0 4.0 0.00 0.00 0.00 63 1019.1
20190527141023 85 186 2.0 4.0 0.00 0.00 0.00 60 1019.1
20190527140027 85 203 2.0 5.0 0.00 0.00 0.00 61 1019.1
20190527135026 85 216 2.0 4.0 0.00 0.00 0.00 57 1019.1
20190527134023 84 246 2.0 5.0 0.00 0.00 0.00 50 1019.2
20190527133026 83 221 1.0 3.0 0.00 0.00 0.00 41 1019.0
20190527132024 82 259 1.0 3.0 0.00 0.00 0.00 30 1019.0
20190527131022 81 252 2.0 4.0 0.00 0.00 0.00 3 1018.9
20190527130026 80 217 1.0 4.0 0.00 0.00 0.00 1 1018.8
20190527125021 78 204 1.0 4.0 0.00 0.00 0.00 1 1018.9
20190527124021 77 146 0.0 3.0 0.00 0.00 0.00 1 1018.7
20190527123025 76 130 0.0 1.0 0.00 0.00 0.00 1 1018.6
20190527122020 75 161 0.0 1.0 0.00 0.00 0.00 1 1018.6
20190527121020 73 318 0.0 1.0 0.00 0.00 0.00 1 1018.5
20190527120024 73 318 0.0 1.0 0.00 0.00 0.00 1 1018.5
20190527115020 73 318 0.0 1.0 0.00 0.00 0.00 1 1018.4
20190527114019 73 319 1.0 1.0 0.00 0.00 0.00 1 1018.3
20190527113023 73 0 0.0 0.0 0.00 0.00 0.00 1 1018.2
20190527112019 73 318 0.0 1.0 0.00 0.00 0.00 1 1018.1
20190527111019 72 0 0.0 0.0 0.00 0.00 0.00 1 1018.1
20190527110022 72 318 0.0 1.0 0.00 0.00 0.00 1 1018.1
20190527105018 72 0 0.0 0.0 0.00 0.00 0.00 1 1017.9
20190527104018 72 0 0.0 0.0 0.00 0.00 0.00 1 1017.8
20190527103021 72 318 0.0 1.0 0.00 0.00 0.00 1 1017.7
20190527102018 73 318 0.0 1.0 0.00 0.00 0.00 1 1017.6
20190527101017 73 318 0.0 1.0 0.00 0.00 0.00 1 1017.7
20190527100021 73 319 1.0 2.0 0.00 0.00 0.00 1 1017.6
20190527095017 72 0 0.0 0.0 0.00 0.00 0.00 1 1017.5
20190527094016 73 0 0.0 0.0 0.00 0.00 0.00 1 1017.5
20190527093020 73 0 0.0 0.0 0.00 0.00 0.00 1 1017.5
20190527092016 73 318 0.0 1.0 0.00 0.00 0.00 1 1017.6
20190527091015 73 318 0.0 1.0 0.00 0.00 0.00 1 1017.5
20190527090020 73 0 0.0 0.0 0.00 0.00 0.00 1 1017.4
20190527085015 73 318 0.0 1.0 0.00 0.00 0.00 1 1017.5
20190527084014 73 318 0.0 1.0 0.00 0.00 0.00 1 1017.5
20190527083018 73 318 0.0 2.0 0.00 0.00 0.00 1 1017.4
20190527082014 73 319 0.0 1.0 0.00 0.00 0.00 1 1017.5
20190527081013 73 318 0.0 1.0 0.00 0.00 0.00 1 1017.5
20190527080017 73 318 0.0 1.0 0.00 0.00 0.00 1 1017.5
20190527075014 74 318 0.0 1.0 0.00 0.00 0.00 1 1017.5
20190527074012 74 0 0.0 0.0 0.00 0.00 0.00 1 1017.6
20190527073016 74 318 0.0 1.0 0.00 0.00 0.00 1 1017.6
20190527072012 74 0 0.0 0.0 0.00 0.00 0.00 1 1017.7
20190527071012 74 318 0.0 1.0 0.00 0.00 0.00 1 1017.7
20190527070016 74 318 0.0 1.0 0.00 0.00 0.00 1 1017.8
20190527065011 74 0 0.0 0.0 0.00 0.00 0.00 1 1017.9
20190527064011 75 0 0.0 0.0 0.00 0.00 0.00 1 1017.9
20190527063015 75 318 0.0 1.0 0.00 0.00 0.00 1 1018.1
20190527062011 75 0 0.0 0.0 0.00 0.00 0.00 1 1018.1
20190527061010 75 0 0.0 0.0 0.00 0.00 0.00 1 1018.1
20190527060014 75 0 0.0 0.0 0.00 0.00 0.00 1 1018.4
20190527055010 76 319 0.0 1.0 0.00 0.00 0.00 1 1018.5
20190527054010 76 318 0.0 1.0 0.00 0.00 0.00 1 1018.6
20190527053013 76 318 0.0 1.0 0.00 0.00 0.00 1 1018.6
20190527052009 76 318 0.0 1.0 0.00 0.00 0.00 1 1018.6
20190527051009 76 318 0.0 1.0 0.00 0.00 0.00 1 1018.6
20190527050018 76 319 1.0 2.0 0.00 0.00 0.00 1 1018.6
20190527045008 76 319 0.0 1.0 0.00 0.00 0.00 1 1018.6
20190527044008 76 318 0.0 2.0 0.00 0.00 0.00 1 1018.5
20190527043012 77 319 1.0 1.0 0.00 0.00 0.00 1 1018.5
20190527042007 77 318 0.0 1.0 0.00 0.00 0.00 1 1018.5
20190527041007 77 318 0.0 1.0 0.00 0.00 0.00 1 1018.5
20190527040011 78 319 0.0 1.0 0.00 0.00 0.00 1 1018.4
20190527035007 78 319 1.0 2.0 0.00 0.00 0.00 1 1018.4
20190527034006 78 318 0.0 1.0 0.00 0.00 0.00 1 1018.2
20190527033010 78 318 0.0 1.0 0.00 0.00 0.00 5 1018.2
20190527032006 79 318 0.0 1.0 0.00 0.00 0.00 13 1018.3
20190527031006 79 0 0.0 0.0 0.00 0.00 0.00 17 1018.1
20190527030010 80 318 0.0 1.0 0.00 0.00 0.00 21 1018.1
20190527025006 80 311 1.0 5.0 0.00 0.00 0.00 22 1018.0
20190527024004 80 280 1.0 3.0 0.00 0.00 0.00 24 1017.9
20190527023009 80 318 1.0 3.0 0.00 0.00 0.00 27 1017.8
20190527022004 80 324 1.0 3.0 0.00 0.00 0.00 33 1017.8
20190527021004 81 324 1.0 3.0 0.00 0.00 0.00 41 1017.7
20190527020008 81 324 0.0 1.0 0.00 0.00 0.00 45 1017.6
20190527015043 82 324 1.0 2.0 0.00 0.00 0.00 49 1017.6
20190527014043 82 319 1.0 5.0 0.00 0.00 0.00 52 1017.7
20190527013047 83 281 1.0 3.0 0.00 0.00 0.00 56 1017.6
20190527012043 83 173 1.0 2.0 0.00 0.00 0.00 61 1017.8
20190527011042 84 173 1.0 2.0 0.00 0.00 0.00 63 1017.8
20190527010046 85 173 1.0 2.0 0.00 0.00 0.00 64 1017.7
20190527005041 86 153 0.0 2.0 0.00 0.00 0.00 64 1017.6
20190527004040 87 270 0.0 3.0 0.00 0.00 0.00 63 1017.6
20190527003045 89 278 1.0 2.0 0.00 0.00 0.00 62 1017.6
20190527002041 90 278 1.0 2.0 0.00 0.00 0.00 61 1017.8
20190527001041 92 279 0.0 1.0 0.00 0.00 0.00 58 1017.8
20190527000045 94 278 1.0 2.0 0.00 0.00 0.00 54 1017.8
20190526235040 96 278 1.0 2.0 0.00 0.00 0.00 52 1017.8
20190526234039 97 279 0.0 2.0 0.00 0.00 0.00 50 1017.8
20190526233043 97 278 1.0 2.0 0.00 0.00 0.00 52 1017.9
20190526232039 97 278 1.0 2.0 0.00 0.00 0.00 48 1017.8
20190526231038 98 279 0.0 2.0 0.00 0.00 0.00 49 1017.9
20190526230043 97 278 1.0 2.0 0.00 0.00 0.00 46 1017.9
20190526225038 97 278 1.0 3.0 0.00 0.00 0.00 51 1018.0
20190526224038 97 283 2.0 4.0 0.00 0.00 0.00 47 1018.0
20190526223042 98 282 1.0 4.0 0.00 0.00 0.00 46 1018.1
20190526222037 98 274 1.0 3.0 0.00 0.00 0.00 49 1018.0
20190526221037 98 277 1.0 3.0 0.00 0.00 0.00 46 1018.0
20190526220041 98 260 1.0 4.0 0.00 0.00 0.00 47 1018.0
20190526215036 98 208 1.0 3.0 0.00 0.00 0.00 46 1018.1
20190526214037 98 305 1.0 2.0 0.00 0.00 0.00 45 1018.2
20190526213041 98 316 1.0 4.0 0.00 0.00 0.00 49 1018.3
20190526212035 97 316 2.0 5.0 0.00 0.00 0.00 47 1018.4
20190526211035 98 3 2.0 4.0 0.00 0.00 0.00 47 1018.6
20190526210140 98 42 1.0 2.0 0.00 0.00 0.00 49 1018.6
20190526205136 97 322 2.0 6.0 0.00 0.00 0.00 50 1018.7
20190526204135 97 302 1.0 4.0 0.00 0.00 0.00 48 1018.9
20190526203140 96 302 2.0 7.0 0.00 0.00 0.00 48 1018.9
20190526202135 96 8 2.0 6.0 0.00 0.00 0.00 50 1019.1
20190526201134 97 72 2.0 5.0 0.00 0.00 0.00 47 1019.2
20190526200139 97 46 2.0 8.0 0.00 0.00 0.00 50 1019.3
20190526195134 97 13 3.0 8.0 0.00 0.00 0.00 51 1019.4
20190526194134 97 301 2.0 9.0 0.00 0.00 0.00 50 1019.6
20190526193137 97 165 2.0 4.0 0.00 0.00 0.00 48 1019.7
20190526192134 96 271 2.0 7.0 0.00 0.00 0.00 50 1019.8
20190526191133 96 274 3.0 6.0 0.00 0.00 0.00 51 1020.0
20190526190137 95 279 2.0 5.0 0.00 0.00 0.00 54 1020.0
20190526185133 94 293 3.0 7.0 0.00 0.00 0.00 56 1020.0
20190526184133 94 48 2.0 5.0 0.00 0.00 0.00 52 1020.0
20190526183136 94 144 1.0 4.0 0.00 0.00 0.00 51 1020.1
20190526182132 95 77 1.0 5.0 0.00 0.00 0.00 53 1020.2
20190526181131 95 318 3.0 6.0 0.00 0.00 0.00 57 1020.3
20190526180135 94 102 2.0 4.0 0.00 0.00 0.00 52 1020.4
20190526175131 94 163 2.0 4.0 0.00 0.00 0.00 53 1020.2
20190526174131 94 283 2.0 5.0 0.00 0.00 0.00 52 1020.4
20190526173135 93 290 2.0 5.0 0.00 0.00 0.00 54 1020.5
20190526172130 92 324 2.0 6.0 0.00 0.00 0.00 59 1020.6
20190526171130 92 270 2.0 6.0 0.00 0.00 0.00 54 1020.7
20190526170134 93 270 2.0 7.0 0.00 0.00 0.00 58 1020.8
20190526165130 93 185 2.0 6.0 0.00 0.00 0.00 54 1020.9
20190526164129 93 31 2.0 4.0 0.00 0.00 0.00 60 1021.0
20190526163133 92 95 2.0 5.0 0.00 0.00 0.00 55 1021.1
20190526162129 92 139 2.0 4.0 0.00 0.00 0.00 55 1021.2
20190526161128 92 301 2.0 5.0 0.00 0.00 0.00 58 1021.1
20190526160132 92 104 2.0 6.0 0.00 0.00 0.00 57 1021.2
20190526155128 91 3 1.0 5.0 0.00 0.00 0.00 59 1021.2
20190526154127 90 262 2.0 4.0 0.00 0.00 0.00 59 1021.3
20190526153132 90 60 1.0 3.0 0.00 0.00 0.00 59 1021.3
20190526152127 90 316 2.0 6.0 0.00 0.00 0.00 61 1021.5
20190526151127 89 343 2.0 5.0 0.00 0.00 0.00 63 1021.4
20190526150130 89 285 2.0 6.0 0.00 0.00 0.00 62 1021.5
20190526145126 88 299 3.0 6.0 0.00 0.00 0.00 63 1021.6